sat.trackr.live / text

‹ back to catalog

STARLINK-35020

NORAD 65340 · 2025-189T

PAYLOAD ACTIVE UNKNOWN

§ Identity

Operator
Country
US
Launch date
2025-08-27
Launch site
AFETR
Launch vehicle
Mass (kg)
RCS (m²)

Purposes: comms

External: N2YO · Heavens-Above · Gunter

§ Orbital elements

Epoch: 2026-05-25T03:59:38.004576Z

Period
94.01 min
Inclination
53.1588°
Eccentricity
0.0000992
Mean motion
15.31714967 rev/d
Perigee alt
470.0 km
Apogee alt
471.4 km
Semi-major
6,848.8 km
B*
5.5393e-4
RAAN
210.9538°
Arg perigee
77.7862°
Mean anomaly
282.3250°
Rev number
4,277

§ Raw data

STARLINK-350201 65340U 25189T   26145.16641209  .00016871  00000+0  55393-3 0  99902 65340  53.1588 210.9538 0000992  77.7862 282.3250 15.31714967 42771

JSON: /api/v1/satellites/65340 · /tle

For live sub-satellite position, see the globe view (requires WebGL).

§ Visibility from observer

Set your observer location to see the next 7 days of passes ≥ 10°. The values pass through the URL so the page stays shareable.

No JS? Fill the form by hand. The geolocation button needs JavaScript.